This is the latest recevied weather packets stored in our database for station/object K5WNG. If no packets are shown the sender has not sent any weather packets the latest 10 day(s).
| Time | Temp. | Humidity | Pressure | Rain* | Wind** | Luminosity | Snow |
|---|---|---|---|---|---|---|---|
| 1778118317 | 16.67° C | 83% | 1013.5 hPa | 0 mm | - | 0 W/m² | - |
| 1778118017 | 16.67° C | 83% | 1013.4 hPa | 0 mm | - | 0 W/m² | - |
| 1778117717 | 16.67° C | 83% | 1013.2 hPa | 0 mm | - | 0 W/m² | - |
| 1778117422 | 16.67° C | 83% | 1013.1 hPa | 0 mm | - | 0 W/m² | - |
| 1778117122 | 16.67° C | 83% | 1012.8 hPa | 0 mm | - | 1 W/m² | - |
| 1778116818 | 16.67° C | 83% | 1013 hPa | 0 mm | - | 1 W/m² | - |
| 1778116520 | 16.67° C | 82% | 1012.9 hPa | 0 mm | - | 4 W/m² | - |
| 1778116217 | 16.67° C | 82% | 1012.8 hPa | 0 mm | - | 8 W/m² | - |
| 1778115921 | 16.67° C | 82% | 1012.9 hPa | 0 mm | - | 13 W/m² | - |
| 1778115621 | 16.67° C | 82% | 1012.9 hPa | 0 mm | - | 18 W/m² | - |
| 1778115318 | 16.67° C | 82% | 1012.7 hPa | 0 mm | - | 25 W/m² | - |
| 1778115018 | 16.67° C | 82% | 1012.6 hPa | 0 mm | - | 35 W/m² | - |
| 1778114721 | 16.67° C | 81% | 1012.4 hPa | 0 mm | - | 37 W/m² | - |
| 1778114418 | 17.22° C | 81% | 1012.5 hPa | 0 mm | - | 35 W/m² | - |
| 1778114118 | 17.22° C | 81% | 1012.5 hPa | 0 mm | - | 43 W/m² | - |
| 1778113821 | 17.22° C | 81% | 1012.5 hPa | 0 mm | - | 56 W/m² | - |
| 1778113518 | 17.22° C | 81% | 1012.3 hPa | 0 mm | - | 71 W/m² | - |
| 1778113219 | 17.22° C | 81% | 1012.5 hPa | 0 mm | - | 72 W/m² | - |
| 1778112922 | 17.22° C | 81% | 1012.5 hPa | 0 mm | - | 63 W/m² | - |
| 1778112619 | 17.22° C | 81% | 1012.4 hPa | 0 mm | - | 68 W/m² | - |
| 1778112316 | 17.22° C | 81% | 1012.5 hPa | 0 mm | - | 59 W/m² | - |
| 1778112020 | 17.22° C | 81% | 1012.4 hPa | 0 mm | - | 66 W/m² | - |
| 1778111722 | 17.22° C | 81% | 1012.2 hPa | 0 mm | - | 68 W/m² | - |
| 1778111416 | 17.22° C | 81% | 1012.4 hPa | 0 mm | - | 86 W/m² | - |
| 1778111116 | 17.22° C | 81% | 1012.5 hPa | 0 mm | - | 84 W/m² | - |
* Rain latest hour (hover to see other rain measurements)
** Current wind speed in m/s (hover to see current wind gust speed)